Location: Bli��� Lhota
(48.7570°N, 14.0120°E)
Time: 15:47:20
(UTC+00:00)

NOSS 3-2 (C) - Pass Details

Date: 18 September 2020
Orbit: 795 x 1418 km, 63.4° (Epoch: 02 October)

Event Time Altitude Azimuth Distance (km) Brightness Sun altitude
Rises 18:44:02 0° 317° (NW) 3,879 7.8 -16.0°
Reaches altitude 10° 18:46:35 10° 321° (NW) 3,006 7.0 -16.4°
Maximum altitude 18:53:51 65° 43° (NE) 1,365 4.1 -17.5°
Enters shadow 18:58:45 26° 117° (ESE) 2,328 4.8 -18.2°
